SL-12 DEB, 41560

Orbit data source: Space-Track

SL-12 DEB, 41560 is space debris in HEO originally from a launch on Thu, 25 Dec 2008 UTC launched from the Tyuratam Missile And Space Complex (TTMTR). Debris objects in space refer to the collection of defunct objects orbiting the Earth. Examples of debris include non-operational satellites, rocket bodies, and fragments generated from explosions, collisions, or faulty payload assembly.

Loading next visibility...
Identifier
41560, 2008-067J
Orbit
HEO
Country
Flag of CISCIS
Related business
Manufacturer
RKKE
Mission
Spacecraft
Bus & Motor
Unknown
Mass
Unknown
Launch date (UTC)
2008-12-25 (17 years ago)
Launch vehicle
Unknown
Launch site
Tyuratam Missile And Space Complex (TTMTR)
Object type
Payload
Rocket body
Debris
Shape & HBR
Unknown
Radar Cross Section
Medium (>0.1 m² and <1 m²)

Expand to show TLE details & history
Last TLE update: 1 day ago

TLE from 1 day ago
0 SL-12 DEB
1 41560U 08067J   25260.30741127  .00000103  00000-0  89916-3 0  9997
2 41560  65.3476 275.2257 5602842 251.8718  41.8915  4.22970207146145
Epoch: 2025-09-17T07:22Z
TLE epoch observation values (Epoch: 2025-09-17T07:22:40.333Z)
Latitude
-0.00004°
Longitude
168.08356°
Altitude
7,055.114 km
Speed
5.888 km/s
True Right ascension
18h 20m 56s
True Declination
0° 00' 00"
Sunlit
Object was in daylight at epoch
Visualization orbit readout
Latitude
Unknown
Longitude
Unknown
Altitude
Unknown
Speed
Unknown
Apparent Right ascension
Unknown
Apparent Declination
Unknown
Sunlit
N/A
Visualization observer readout
Local Sidereal Time
09:53:15
Azimuth
Unknown
Elevation
Unknown
Doppler factor
Unknown
Orbital elements
Apogee altitude
18,820.002 km
Perigee altitude
723.146 km
Semi-major axis
16,149.711 km
Eccentricity
0.56028
Inclination
65.3476°
RAAN
275.2257°
Arg. of periapsis
251.8718°
True anomaly
108.19943°
Mean anomaly
41.8915°
Eccentric anomaly
72.50919°
Mean motion
1.05754 °/min
Orbital period
340.41 mins
BSTAR
0.00089916
Loading maneuver chart data...
Computing Atmospheric mass density...
Loading historical data...
Loading historical data...
Loading historical data...
Loading historical data...
Loading historical data...
Loading historical data...
Loading historical data...

Documentation

Showing up to 5 results
|